Owosso, MI

10:57 AM EDT on March 25, 2017 (GMT -0400)
Owosso

Weather History for KRNP - November, 2013

Change the Weather History Date:

Friday, November 15, 2013

  Actual Average (KFNT) Record (KFNT)
Temperature  
Mean Temperature 47 °F -  
Max Temperature 54 °F 44 °F 69 °F (1990)
Min Temperature 40 °F 30 °F 10 °F (1933)
Degree Days  
Heating Degree Days 18    
Moisture  
Dew Point 24 °F    
Average Humidity 43    
Maximum Humidity 61    
Minimum Humidity 29    
Precipitation  
Precipitation 0.00 in - - ()
Sea Level Pressure  
Sea Level Pressure 29.98 in    
Wind  
Wind Speed 8 mph (SSW)    
Max Wind Speed 13 mph    
Max Gust Speed 21 mph    
Visibility 10 miles    
Events      
Averages and records for this station are not official NWS values.
T = Trace of Precipitation, MM = Missing Value Source: NWS Daily Summary

Daily Weather History Graph

Daily Weather History Graph

Search for Another Location

Airport or City:

Trip Planner

Search our weather history database for the weather conditions in past years. The results will help you decide how hot, cold, wet, or windy it might be!

Date:

Astronomy

Nov. 15, 2013 Rise Set
Actual Time 7:29 AM EST 5:12 PM EST
Civil Twilight 6:58 AM EST 5:43 PM EST
Nautical Twilight 6:24 AM EST 6:17 PM EST
Astronomical Twilight 5:50 AM EST 6:51 PM EST
Moon 4:11 PM EST (11/15) 5:22 AM EST (11/15)
Length of Visible Light 10h 44m
Length of Day
9h 43m
Waxing Gibbous, 96% of the Moon is Illuminated
Nov 15
Waxing Gibbous
Nov 17
Full
Nov 25
Last Quarter
Dec 2
New
Dec 9
First Quarter

Hourly Weather History & Observations

Time (EST) Temp. Windchill Dew Point Humidity Pressure Visibility Wind Dir Wind Speed Gust Speed Precip Events Conditions
12:15 AM 43.9 °F 38.8 °F 20.7 °F 40% 29.97 in 10.0 mi SSW 9.2 mph - N/A   Clear
12:35 AM 43.7 °F 38.6 °F 21.0 °F 41% 29.97 in 10.0 mi SW 9.2 mph 16.1 mph N/A   Clear
12:54 AM 43.7 °F 39.1 °F 21.2 °F 41% 29.97 in 10.0 mi SW 8.1 mph - N/A   Clear
1:15 AM 43.7 °F 39.1 °F 21.2 °F 41% 29.96 in 10.0 mi SW 8.1 mph - N/A   Clear
1:35 AM 43.7 °F 38.1 °F 21.6 °F 41% 29.97 in 10.0 mi SW 10.4 mph - N/A   Clear
1:54 AM 43.7 °F 39.1 °F 21.7 °F 42% 29.97 in 10.0 mi SSW 8.1 mph - N/A   Clear
2:15 AM 43.7 °F 38.6 °F 21.9 °F 42% 29.97 in 10.0 mi SSW 9.2 mph - N/A   Clear
2:35 AM 43.7 °F 38.1 °F 21.9 °F 42% 29.97 in 10.0 mi SSW 10.4 mph 18.4 mph N/A   Clear
2:55 AM 43.3 °F 38.6 °F 21.9 °F 43% 29.97 in 10.0 mi SSW 8.1 mph - N/A   Clear
3:15 AM 43.3 °F 38.6 °F 21.7 °F 42% 29.97 in 10.0 mi SW 8.1 mph 17.3 mph N/A   Scattered Clouds
3:35 AM 43.3 °F 38.1 °F 21.7 °F 42% 29.97 in 10.0 mi SSW 9.2 mph - N/A   Scattered Clouds
3:55 AM 43.2 °F 37.9 °F 22.1 °F 43% 29.96 in 10.0 mi SSW 9.2 mph - N/A   Clear
4:15 AM 43.3 °F 37.7 °F 21.7 °F 42% 29.96 in 10.0 mi SW 10.4 mph 17.3 mph N/A   Clear
4:35 AM 43.3 °F 38.1 °F 21.9 °F 43% 29.96 in 10.0 mi SSW 9.2 mph 16.1 mph N/A   Clear
4:55 AM 43.2 °F 38.4 °F 22.1 °F 43% 29.96 in 10.0 mi SSW 8.1 mph - N/A   Clear
5:15 AM 42.8 °F 37.5 °F 22.3 °F 44% 29.96 in 10.0 mi SSW 9.2 mph - N/A   Clear
5:34 AM 42.1 °F 36.6 °F 22.5 °F 46% 29.97 in 10.0 mi SSW 9.2 mph - N/A   Clear
5:55 AM 41.9 °F 36.3 °F 22.6 °F 46% 29.96 in 10.0 mi SSW 9.2 mph - N/A   Clear
6:15 AM 41.4 °F 36.8 °F 23.0 °F 48% 29.97 in 10.0 mi SSW 6.9 mph - N/A   Clear
6:34 AM 41.0 °F 36.4 °F 23.4 °F 50% 29.97 in 10.0 mi SSW 6.9 mph - N/A   Clear
6:55 AM 41.2 °F 36.6 °F 23.0 °F 48% 29.98 in 10.0 mi SSW 6.9 mph - N/A   Clear
7:15 AM 41.0 °F 35.2 °F 23.4 °F 50% 29.98 in 10.0 mi SSW 9.2 mph - N/A   Clear
7:35 AM 41.2 °F 36.0 °F 23.4 °F 49% 29.99 in 10.0 mi SSW 8.1 mph - N/A   Clear
7:55 AM 41.2 °F 36.0 °F 23.5 °F 50% 29.99 in 10.0 mi SW 8.1 mph - N/A   Clear
8:15 AM 41.4 °F 36.2 °F 23.9 °F 50% 29.99 in 10.0 mi SSW 8.1 mph - N/A   Clear
8:35 AM 41.9 °F 38.2 °F 23.9 °F 49% 30.00 in 10.0 mi SSW 5.8 mph - N/A   Clear
8:55 AM 41.9 °F 37.5 °F 24.1 °F 49% 30.00 in 10.0 mi South 6.9 mph - N/A   Clear
9:15 AM 41.9 °F 36.9 °F 24.4 °F 50% 30.00 in 10.0 mi South 8.1 mph - N/A   Clear
9:35 AM 42.8 °F 38.0 °F 24.6 °F 49% 30.00 in 10.0 mi SSW 8.1 mph - N/A   Clear
9:55 AM 43.3 °F 38.6 °F 24.4 °F 47% 30.00 in 10.0 mi SSW 8.1 mph - N/A   Clear
10:14 AM 45.1 °F 40.3 °F 24.4 °F 44% 30.00 in 10.0 mi SSW 9.2 mph - N/A   Clear
10:35 AM 47.3 °F - 24.8 °F 41% 30.00 in 10.0 mi SSW 11.5 mph - N/A   Clear
10:55 AM 48.6 °F - 24.6 °F 39% 30.00 in 10.0 mi SSW 12.7 mph 17.3 mph N/A   Clear
11:14 AM 49.1 °F - 24.3 °F 38% 30.00 in 10.0 mi SSW 10.4 mph - N/A   Clear
11:35 AM 49.6 °F - 24.1 °F 37% 29.99 in 10.0 mi SSW 10.4 mph - N/A   Clear
11:55 AM 49.3 °F - 23.7 °F 37% 29.99 in 10.0 mi SSW 10.4 mph - N/A   Clear
12:14 PM 49.6 °F - 23.5 °F 36% 29.98 in 10.0 mi SW 11.5 mph 17.3 mph N/A   Scattered Clouds
12:35 PM 51.4 °F - 23.4 °F 33% 29.97 in 10.0 mi SW 11.5 mph - N/A   Scattered Clouds
12:55 PM 52.2 °F - 22.6 °F 32% 29.96 in 10.0 mi SW 12.7 mph 17.3 mph N/A   Clear
1:15 PM 52.3 °F - 23.2 °F 32% 29.96 in 10.0 mi SW 9.2 mph 17.3 mph N/A   Clear
1:35 PM 53.6 °F - 23.2 °F 31% 29.96 in 10.0 mi SSW 10.4 mph - N/A   Scattered Clouds
1:55 PM 54.0 °F - 22.3 °F 29% 29.95 in 10.0 mi SW 9.2 mph 20.7 mph N/A   Clear
2:15 PM 53.1 °F - 22.3 °F 30% 29.95 in 10.0 mi SSW 12.7 mph - N/A   Clear
2:35 PM 52.7 °F - 22.6 °F 31% 29.95 in 10.0 mi SW 8.1 mph - N/A   Clear
2:54 PM 53.1 °F - 23.0 °F 31% 29.95 in 10.0 mi SSW 8.1 mph - N/A   Scattered Clouds
3:15 PM 52.0 °F - 22.6 °F 32% 29.96 in 10.0 mi SSW 8.1 mph - N/A   Overcast
3:35 PM 52.2 °F - 22.6 °F 32% 29.97 in 10.0 mi SW 8.1 mph 17.3 mph N/A   Overcast
3:55 PM 51.6 °F - 23.5 °F 33% 29.97 in 10.0 mi SSW 8.1 mph - N/A   Overcast
4:15 PM 51.3 °F - 23.4 °F 34% 29.97 in 10.0 mi SW 6.9 mph - N/A   Overcast
4:34 PM 50.9 °F - 24.1 °F 35% 29.97 in 10.0 mi SW 5.8 mph - N/A   Overcast
4:55 PM 50.4 °F - 25.2 °F 37% 29.98 in 10.0 mi SSW 4.6 mph - N/A   Overcast
5:14 PM 50.0 °F - 24.6 °F 37% 29.98 in 10.0 mi SSW 8.1 mph - N/A   Overcast
5:34 PM 50.5 °F - 23.7 °F 35% 29.98 in 10.0 mi SSW 4.6 mph - N/A   Overcast
5:55 PM 49.8 °F - 23.5 °F 36% 29.98 in 10.0 mi SSW 8.1 mph - N/A   Overcast
6:15 PM 49.6 °F - 23.5 °F 36% 29.99 in 10.0 mi SSW 8.1 mph - N/A   Overcast
6:35 PM 49.1 °F - 24.1 °F 38% 30.00 in 10.0 mi SSW 6.9 mph - N/A   Overcast
6:55 PM 48.7 °F - 25.0 °F 40% 30.00 in 10.0 mi SSW 6.9 mph - N/A   Overcast
7:15 PM 47.3 °F - 25.3 °F 42% 30.01 in 10.0 mi South 4.6 mph - N/A   Overcast
7:35 PM 46.0 °F 44.8 °F 25.0 °F 44% 30.01 in 10.0 mi South 3.5 mph - N/A   Scattered Clouds
7:55 PM 45.1 °F - 25.3 °F 46% 30.00 in 10.0 mi Calm Calm - N/A   Clear
8:15 PM 44.4 °F - 25.5 °F 48% 30.00 in 10.0 mi Calm Calm - N/A   Clear
8:35 PM 40.3 °F 38.2 °F 26.8 °F 59% 30.00 in 10.0 mi SSE 3.5 mph - N/A   Clear
8:55 PM 40.8 °F - 26.4 °F 57% 30.01 in 10.0 mi Calm Calm - N/A   Clear
9:14 PM 42.8 °F 41.1 °F 26.1 °F 52% 30.01 in 10.0 mi SSE 3.5 mph - N/A   Clear
9:35 PM 42.1 °F 39.2 °F 26.8 °F 55% 30.01 in 10.0 mi South 4.6 mph - N/A   Clear
9:55 PM 41.9 °F 39.0 °F 27.5 °F 57% 30.01 in 10.0 mi South 4.6 mph - N/A   Clear
10:14 PM 41.7 °F 38.8 °F 27.9 °F 58% 30.02 in 10.0 mi South 4.6 mph - N/A   Clear
10:35 PM 41.4 °F 39.4 °F 28.0 °F 59% 30.01 in 10.0 mi South 3.5 mph - N/A   Clear
10:55 PM 41.2 °F 38.2 °F 28.2 °F 60% 30.02 in 10.0 mi South 4.6 mph - N/A   Clear
11:15 PM 41.0 °F 38.0 °F 28.4 °F 61% 30.01 in 10.0 mi South 4.6 mph - N/A   Clear
11:35 PM 41.0 °F 37.1 °F 28.6 °F 61% 30.02 in 10.0 mi South 5.8 mph - N/A   Clear
11:55 PM 41.0 °F 37.1 °F 28.6 °F 61% 30.03 in 10.0 mi South 5.8 mph - N/A   Clear